User: anonymous   Login
Location: Ostrava
(49.8330°N, 18.2830°E)
Time: 11:24:54
(UTC+01:00)
Language:

NOAA 19 - Orbit

View from above orbital plane
View from above orbital plane
View from above satellite
View from above satellite

Ground track
Ground track

The orbit data is extracted from the following two-line orbital elements,

1 33591U 09005A   15025.52388843  .00000129  00000-0  95067-4 0  5460
2 33591 098.9734 335.1993 0013633 208.6856 202.1421 14.11860814307362
Epoch (UTC): 25 January 2015 12:34:23
Eccentricity: 0.0013633
inclination: 98.9734°
perigee height: 843 km
apogee height: 863 km
right ascension of ascending node: 335.1993°
argument of perigee: 208.6856°
revolutions per day: 14.11860814
mean anomaly at epoch: 202.1421°
orbit number at epoch: 30736

The dashed part of the orbit path shows where the satellite is in the earth's shadow,  

DLR